Location: Dyersburg
(36.0438°N, 89.3789°W)
Time: 23:48:20
(UTC+00:00)

A-11 Canister half - Visible Passes

Search period start: 23 February 2020 00:00
Search period end: 04 March 2020 00:00
Orbit: 1524 x 1684 km, 47.3° (Epoch: 23 February)

Date Brightness Start Highest point End Pass type
(mag) Time Alt. Az. Time Alt. Az. Time Alt. Az.
23 Feb 11.3 00:36:39 10° W 00:42:09 17° SW 00:47:45 10° SSW visible
24 Feb 11.3 00:14:42 10° W 00:20:36 19° SW 00:26:34 10° SSW visible
28 Feb 10.9 11:57:48 10° S 12:05:53 30° SE 12:13:44 10° ENE visible
29 Feb 10.9 11:36:24 10° S 11:44:17 28° SE 11:51:59 10° ENE visible
01 Mar 10.9 11:15:01 10° S 11:22:42 27° SE 11:30:12 10° ENE visible
02 Mar 10.9 10:53:39 10° S 11:01:07 25° SE 11:08:24 10° ENE visible
03 Mar 10.9 10:32:18 10° S 10:39:32 23° SE 10:46:35 10° ENE visible
